Simultaneous Nadir Overpasses (SNOs) Predictions

Prediction of SNOs between GOES-17 and TERRA Satellite Orbit:

Table of predicted SNOs for the next 14.0 days since TLE Epoch: 11/25/2023
Index Date Time (GOES-17) GOES-17 Lat,Lon TERRA Lat,Lon Distance(km) Time Diff (sec)
1 11/26/2023 04:51:05 0.02,-104.66 0.27,-103.57 124.45 80
2 11/26/2023 17:11:11 -0.02,-104.67 0.77,-108.45 429.36 80
3 11/28/2023 16:57:07 -0.00,-104.67 -0.04,-104.41 29.78 80
4 11/30/2023 16:40:23 0.02,-104.68 -0.87,-100.37 489.21 80
5 12/01/2023 05:00:36 -0.02,-104.66 -0.18,-105.28 70.77 80
6 12/03/2023 04:41:12 -0.03,-104.67 0.69,-101.24 389.01 80
7 12/03/2023 17:01:18 0.03,-104.68 0.32,-106.13 164.84 80
8 12/05/2023 16:47:13 0.04,-104.68 -0.52,-102.09 295.60 80
9 12/06/2023 05:07:25 -0.04,-104.68 -0.51,-107.00 263.51 80
10 12/08/2023 04:48:00 -0.04,-104.69 0.31,-102.95 197.02 80
11 12/08/2023 17:08:05 0.04,-104.69 0.69,-107.84 357.29 80
